Time,TemperatureF,DewpointF,PressureIn,WindDirection,WindDirectionDegrees,WindSpeedMPH,WindSpeedGustMPH,Humidity,HourlyPrecipIn,Conditions,Clouds,dailyrainin,SoftwareType,DateUTC
2013-07-17 00:02:00,73.8,67.1,29.68,North,360,0.0,0.0,79,-99.99,,,-99.99,WSDL version 423,2013-07-17 04:02:00,
2013-07-17 00:07:00,73.6,67.2,29.68,North,6,0.0,0.0,81,-99.99,,,-99.99,WSDL version 423,2013-07-17 04:07:00,
2013-07-17 00:12:00,73.4,67.3,29.68,NNE,20,0.0,0.0,82,-99.99,,,-99.99,WSDL version 423,2013-07-17 04:12:00,
2013-07-17 00:17:00,73.2,67.7,29.68,NNE,30,0.0,0.0,83,-99.99,,,-99.99,WSDL version 423,2013-07-17 04:17:00,
2013-07-17 00:22:00,73.0,67.7,29.68,NNE,17,0.0,0.9,84,-99.99,,,-99.99,WSDL version 423,2013-07-17 04:22:00,
2013-07-17 00:27:00,72.7,67.8,29.68,NNE,13,0.7,1.6,84,-99.99,,,-99.99,WSDL version 423,2013-07-17 04:27:00,
2013-07-17 00:32:00,72.6,68.1,29.68,North,6,0.0,2.0,87,-99.99,,,-99.99,WSDL version 423,2013-07-17 04:32:00,
2013-07-17 00:37:00,72.4,68.2,29.68,North,360,0.0,2.0,87,-99.99,,,-99.99,WSDL version 423,2013-07-17 04:37:00,
2013-07-17 00:42:00,72.3,68.3,29.65,North,360,0.0,0.0,88,-99.99,,,-99.99,WSDL version 423,2013-07-17 04:42:00,
2013-07-17 00:47:00,72.3,68.5,29.65,North,360,0.0,0.0,88,-99.99,,,-99.99,WSDL version 423,2013-07-17 04:47:00,
2013-07-17 00:52:00,72.3,68.5,29.65,North,360,0.0,0.0,88,-99.99,,,-99.99,WSDL version 423,2013-07-17 04:52:00,
2013-07-17 00:57:00,72.2,68.3,29.65,North,360,0.0,0.0,88,-99.99,,,-99.99,WSDL version 423,2013-07-17 04:57:00,
2013-07-17 01:02:00,72.1,68.1,29.65,North,360,0.0,0.0,88,-99.99,,,-99.99,WSDL version 423,2013-07-17 05:02:00,
2013-07-17 01:07:00,71.9,68.1,29.65,North,360,0.0,0.0,88,-99.99,,,-99.99,WSDL version 423,2013-07-17 05:07:00,
2013-07-17 01:12:00,71.8,67.7,29.65,North,360,0.0,0.0,88,-99.99,,,-99.99,WSDL version 423,2013-07-17 05:12:00,
2013-07-17 01:17:00,71.7,68.0,29.65,North,8,0.3,2.0,89,-99.99,,,-99.99,WSDL version 423,2013-07-17 05:17:00,
2013-07-17 01:22:00,71.6,68.3,29.65,North,360,0.0,2.0,90,-99.99,,,-99.99,WSDL version 423,2013-07-17 05:22:00,
2013-07-17 01:27:00,71.4,68.6,29.65,NNE,25,0.0,0.0,91,-99.99,,,-99.99,WSDL version 423,2013-07-17 05:27:00,
2013-07-17 01:32:00,71.3,68.5,29.65,North,352,0.3,2.0,91,-99.99,,,-99.99,WSDL version 423,2013-07-17 05:32:00,
2013-07-17 01:37:00,71.2,68.5,29.65,North,358,0.0,2.0,91,-99.99,,,-99.99,WSDL version 423,2013-07-17 05:37:00,
2013-07-17 01:42:00,71.2,68.6,29.65,NW,315,0.0,0.0,92,-99.99,,,-99.99,WSDL version 423,2013-07-17 05:42:00,
2013-07-17 01:47:00,71.1,68.5,29.65,North,355,0.0,0.0,91,-99.99,,,-99.99,WSDL version 423,2013-07-17 05:47:00,
2013-07-17 01:52:00,71.1,68.3,29.65,North,349,0.0,0.0,91,-99.99,,,-99.99,WSDL version 423,2013-07-17 05:52:00,
2013-07-17 01:57:00,70.9,68.5,29.65,North,6,0.0,0.0,92,-99.99,,,-99.99,WSDL version 423,2013-07-17 05:57:00,
2013-07-17 02:02:00,70.8,68.4,29.65,North,3,0.0,0.0,92,-99.99,,,-99.99,WSDL version 423,2013-07-17 06:02:00,
2013-07-17 02:07:00,70.7,68.3,29.65,North,360,0.0,0.0,92,-99.99,,,-99.99,WSDL version 423,2013-07-17 06:07:00,
2013-07-17 02:12:00,70.5,68.2,29.65,NNW,343,0.0,1.3,92,-99.99,,,-99.99,WSDL version 423,2013-07-17 06:12:00,
2013-07-17 02:17:00,70.5,68.5,29.65,NNE,17,0.0,1.3,93,-99.99,,,-99.99,WSDL version 423,2013-07-17 06:17:00,
2013-07-17 02:22:00,70.4,68.5,29.65,NNW,346,0.0,0.0,93,-99.99,,,-99.99,WSDL version 423,2013-07-17 06:22:00,
2013-07-17 02:27:00,70.3,68.3,29.65,North,360,0.0,0.0,93,-99.99,,,-99.99,WSDL version 423,2013-07-17 06:27:00,
2013-07-17 02:32:00,70.2,68.4,29.65,North,360,0.0,0.0,93,-99.99,,,-99.99,WSDL version 423,2013-07-17 06:32:00,
2013-07-17 02:37:00,70.2,68.5,29.65,North,360,0.0,0.0,94,-99.99,,,-99.99,WSDL version 423,2013-07-17 06:37:00,
2013-07-17 02:42:00,70.1,68.5,29.62,North,360,0.0,0.0,94,-99.99,,,-99.99,WSDL version 423,2013-07-17 06:42:00,
2013-07-17 02:47:00,70.0,68.3,29.62,North,360,0.0,0.0,94,-99.99,,,-99.99,WSDL version 423,2013-07-17 06:47:00,
2013-07-17 02:52:00,69.9,68.1,29.62,North,360,0.0,0.0,93,-99.99,,,-99.99,WSDL version 423,2013-07-17 06:52:00,
2013-07-17 02:57:00,69.8,68.0,29.62,North,10,0.0,0.0,94,-99.99,,,-99.99,WSDL version 423,2013-07-17 06:57:00,
2013-07-17 03:02:00,69.7,68.3,29.62,NE,45,0.0,0.0,96,-99.99,,,-99.99,WSDL version 423,2013-07-17 07:02:00,
2013-07-17 03:07:00,69.6,68.3,29.62,North,360,0.0,0.0,96,-99.99,,,-99.99,WSDL version 423,2013-07-17 07:07:00,
2013-07-17 03:12:00,69.6,68.3,29.62,NE,48,0.0,0.0,96,-99.99,,,-99.99,WSDL version 423,2013-07-17 07:12:00,
2013-07-17 03:17:00,69.4,68.5,29.62,North,352,0.5,2.2,97,-99.99,,,-99.99,WSDL version 423,2013-07-17 07:17:00,
2013-07-17 03:22:00,69.4,68.5,29.62,North,360,0.3,2.2,97,-99.99,,,-99.99,WSDL version 423,2013-07-17 07:22:00,
2013-07-17 03:27:00,69.3,68.7,29.62,NNW,338,0.0,1.6,98,-99.99,,,-99.99,WSDL version 423,2013-07-17 07:27:00,
2013-07-17 03:32:00,69.3,68.6,29.62,NNE,23,0.0,1.6,98,-99.99,,,-99.99,WSDL version 423,2013-07-17 07:32:00,
2013-07-17 03:37:00,69.2,68.5,29.62,North,360,0.0,0.0,98,-99.99,,,-99.99,WSDL version 423,2013-07-17 07:37:00,
2013-07-17 03:42:00,69.1,68.4,29.65,NNW,338,0.0,0.0,98,-99.99,,,-99.99,WSDL version 423,2013-07-17 07:42:00,
2013-07-17 03:47:00,69.1,68.4,29.65,NNW,338,0.0,0.0,98,-99.99,,,-99.99,WSDL version 423,2013-07-17 07:47:00,
2013-07-17 03:52:00,69.0,68.6,29.65,NNW,338,0.0,0.0,99,-99.99,,,-99.99,WSDL version 423,2013-07-17 07:52:00,
2013-07-17 03:57:00,68.9,68.2,29.62,NNW,338,0.0,0.0,98,-99.99,,,-99.99,WSDL version 423,2013-07-17 07:57:00,
2013-07-17 04:02:00,68.9,68.2,29.62,NNW,338,0.0,0.0,98,-99.99,,,-99.99,WSDL version 423,2013-07-17 08:02:00,
2013-07-17 04:07:00,68.9,68.2,29.62,NNW,338,0.0,0.0,98,-99.99,,,-99.99,WSDL version 423,2013-07-17 08:07:00,
2013-07-17 04:12:00,68.9,68.4,29.62,NNE,17,0.0,0.0,99,-99.99,,,-99.99,WSDL version 423,2013-07-17 08:12:00,
2013-07-17 04:17:00,68.9,68.6,29.62,North,3,0.0,0.0,99,-99.99,,,-99.99,WSDL version 423,2013-07-17 08:17:00,
2013-07-17 04:22:00,68.9,68.6,29.62,North,360,0.0,0.0,99,-99.99,,,-99.99,WSDL version 423,2013-07-17 08:22:00,
2013-07-17 04:27:00,69.1,68.8,29.62,North,360,0.0,0.0,99,-99.99,,,-99.99,WSDL version 423,2013-07-17 08:27:00,
2013-07-17 04:32:00,69.2,68.8,29.62,North,360,0.0,0.0,99,-99.99,,,-99.99,WSDL version 423,2013-07-17 08:32:00,
2013-07-17 04:37:00,69.3,68.9,29.62,North,360,0.0,0.0,99,-99.99,,,-99.99,WSDL version 423,2013-07-17 08:37:00,
2013-07-17 04:42:00,69.3,68.9,29.62,North,360,0.0,0.0,99,-99.99,,,-99.99,WSDL version 423,2013-07-17 08:42:00,
2013-07-17 04:47:00,69.4,69.1,29.62,North,360,0.0,0.0,99,-99.99,,,-99.99,WSDL version 423,2013-07-17 08:47:00,
2013-07-17 04:52:00,69.4,69.4,29.62,NNW,343,0.0,0.0,100,-99.99,,,-99.99,WSDL version 423,2013-07-17 08:52:00,
2013-07-17 04:57:00,69.4,69.2,29.62,NNW,340,0.0,1.3,99,-99.99,,,-99.99,WSDL version 423,2013-07-17 08:57:00,
2013-07-17 05:02:00,69.2,68.9,29.62,North,353,0.2,2.0,99,-99.99,,,-99.99,WSDL version 423,2013-07-17 09:02:00,
2013-07-17 05:07:00,69.1,69.0,29.62,North,357,0.0,2.0,100,-99.99,,,-99.99,WSDL version 423,2013-07-17 09:07:00,
2013-07-17 05:12:00,69.0,69.0,29.62,North,352,0.0,0.0,100,-99.99,,,-99.99,WSDL version 423,2013-07-17 09:12:00,
2013-07-17 05:17:00,68.9,68.9,29.62,NNW,338,0.0,0.0,100,-99.99,,,-99.99,WSDL version 423,2013-07-17 09:17:00,
2013-07-17 05:22:00,68.9,68.9,29.62,NNW,338,0.0,0.0,100,-99.99,,,-99.99,WSDL version 423,2013-07-17 09:22:00,
2013-07-17 05:27:00,68.9,68.9,29.62,NNW,338,0.0,0.0,100,-99.99,,,-99.99,WSDL version 423,2013-07-17 09:27:00,
2013-07-17 05:32:00,68.9,68.9,29.62,NNW,338,0.0,0.0,100,-99.99,,,-99.99,WSDL version 423,2013-07-17 09:32:00,
2013-07-17 05:37:00,69.0,69.0,29.62,North,360,0.0,0.0,100,-99.99,,,-99.99,WSDL version 423,2013-07-17 09:37:00,
2013-07-17 05:42:00,68.9,68.9,29.62,North,360,0.0,0.0,100,-99.99,,,-99.99,WSDL version 423,2013-07-17 09:42:00,
2013-07-17 05:47:00,68.9,68.9,29.62,NNW,343,0.0,0.0,100,-99.99,,,-99.99,WSDL version 423,2013-07-17 09:47:00,
2013-07-17 05:52:00,68.9,68.9,29.62,North,360,0.0,0.0,100,-99.99,,,-99.99,WSDL version 423,2013-07-17 09:52:00,
2013-07-17 05:57:00,68.9,68.9,29.62,North,360,0.0,0.0,100,-99.99,,,-99.99,WSDL version 423,2013-07-17 09:57:00,
2013-07-17 06:02:00,68.9,68.9,29.62,North,11,0.0,0.0,100,-99.99,,,-99.99,WSDL version 423,2013-07-17 10:02:00,
2013-07-17 06:07:00,68.9,68.9,29.62,North,360,0.0,0.0,100,-99.99,,,-99.99,WSDL version 423,2013-07-17 10:07:00,
2013-07-17 06:12:00,69.0,69.0,29.62,North,360,0.0,0.0,100,-99.99,,,-99.99,WSDL version 423,2013-07-17 10:12:00,
2013-07-17 06:17:00,69.1,69.1,29.62,North,360,0.0,0.0,100,-99.99,,,-99.99,WSDL version 423,2013-07-17 10:17:00,
2013-07-17 06:22:00,69.3,69.3,29.62,North,360,0.0,0.0,100,-99.99,,,-99.99,WSDL version 423,2013-07-17 10:22:00,
2013-07-17 06:27:00,69.8,69.8,29.62,NE,38,0.0,1.6,100,-99.99,,,-99.99,WSDL version 423,2013-07-17 10:27:00,
2013-07-17 06:32:00,70.8,70.8,29.62,NNE,25,0.0,1.6,100,-99.99,,,-99.99,WSDL version 423,2013-07-17 10:32:00,
2013-07-17 06:37:00,72.2,72.2,29.62,NNE,28,0.0,1.3,100,-99.99,,,-99.99,WSDL version 423,2013-07-17 10:37:00,
2013-07-17 06:42:00,73.6,73.4,29.62,NNW,338,0.0,0.0,99,-99.99,,,-99.99,WSDL version 423,2013-07-17 10:42:00,
2013-07-17 06:47:00,74.1,73.2,29.62,NNW,343,0.0,0.0,97,-99.99,,,-99.99,WSDL version 423,2013-07-17 10:47:00,
2013-07-17 06:52:00,75.3,74.0,29.62,NNW,330,0.0,0.0,94,-99.99,,,-99.99,WSDL version 423,2013-07-17 10:52:00,
2013-07-17 06:57:00,76.6,74.2,29.62,NE,45,0.0,0.0,90,-99.99,,,-99.99,WSDL version 423,2013-07-17 10:57:00,
2013-07-17 07:02:00,77.5,74.0,29.62,NE,45,0.0,0.0,89,-99.99,,,-99.99,WSDL version 423,2013-07-17 11:02:00,
2013-07-17 07:07:00,78.7,74.0,29.62,NNW,338,0.0,0.0,84,-99.99,,,-99.99,WSDL version 423,2013-07-17 11:07:00,
2013-07-17 07:13:00,79.8,74.1,29.62,North,355,0.0,0.0,82,-99.99,,,-99.99,WSDL version 423,2013-07-17 11:13:00,
2013-07-17 07:22:00,81.5,73.8,29.62,WNW,293,0.0,0.0,77,-99.99,,,-99.99,WSDL version 423,2013-07-17 11:22:00,
2013-07-17 07:27:00,82.4,73.9,29.59,South,188,0.0,1.3,74,-99.99,,,-99.99,WSDL version 423,2013-07-17 11:27:00,
2013-07-17 07:32:00,82.9,71.7,29.59,SW,214,0.0,1.3,70,-99.99,,,-99.99,WSDL version 423,2013-07-17 11:32:00,
2013-07-17 07:37:00,83.4,71.8,29.59,SW,225,0.0,0.0,67,-99.99,,,-99.99,WSDL version 423,2013-07-17 11:37:00,
2013-07-17 07:42:00,84.1,71.2,29.59,SW,225,0.0,0.0,65,-99.99,,,-99.99,WSDL version 423,2013-07-17 11:42:00,
2013-07-17 07:47:00,85.0,71.4,29.59,SW,225,0.0,0.0,63,-99.99,,,-99.99,WSDL version 423,2013-07-17 11:47:00,
2013-07-17 07:52:00,85.8,72.1,29.59,South,180,0.0,0.0,64,-99.99,,,-99.99,WSDL version 423,2013-07-17 11:52:00,
2013-07-17 07:57:00,86.4,72.2,29.59,SSW,200,0.0,0.0,63,-99.99,,,-99.99,WSDL version 423,2013-07-17 11:57:00,
2013-07-17 08:02:00,87.2,72.7,29.59,SSW,203,0.0,0.0,61,-99.99,,,-99.99,WSDL version 423,2013-07-17 12:02:00,
2013-07-17 08:07:00,87.9,72.3,29.59,SSW,200,0.0,2.0,60,-99.99,,,-99.99,WSDL version 423,2013-07-17 12:07:00,
2013-07-17 08:12:00,88.7,71.9,29.59,SE,135,0.2,2.0,57,-99.99,,,-99.99,WSDL version 423,2013-07-17 12:12:00,
2013-07-17 08:17:00,89.7,72.1,29.59,SE,135,0.0,1.6,56,-99.99,,,-99.99,WSDL version 423,2013-07-17 12:17:00,
2013-07-17 08:22:00,90.4,71.4,29.59,SE,135,0.0,0.0,54,-99.99,,,-99.99,WSDL version 423,2013-07-17 12:22:00,
2013-07-17 08:27:00,91.5,71.2,29.59,SE,135,0.0,0.9,50,-99.99,,,-99.99,WSDL version 423,2013-07-17 12:27:00,
2013-07-17 08:32:00,91.9,69.5,29.59,SE,135,0.0,0.9,49,-99.99,,,-99.99,WSDL version 423,2013-07-17 12:32:00,
2013-07-17 08:37:00,92.5,69.9,29.59,SE,135,0.0,2.2,47,-99.99,,,-99.99,WSDL version 423,2013-07-17 12:37:00,
2013-07-17 08:42:00,92.9,69.0,29.59,SE,135,0.0,2.2,46,-99.99,,,-99.99,WSDL version 423,2013-07-17 12:42:00,
2013-07-17 08:47:00,93.5,68.9,29.59,SE,135,0.2,1.3,45,-99.99,,,-99.99,WSDL version 423,2013-07-17 12:47:00,
2013-07-17 08:52:00,93.7,67.5,29.59,SW,233,1.2,2.5,41,-99.99,,,-99.99,WSDL version 423,2013-07-17 12:52:00,
2013-07-17 08:57:00,93.8,67.2,29.62,SW,225,0.8,2.5,43,-99.99,,,-99.99,WSDL version 423,2013-07-17 12:57:00,
2013-07-17 09:02:00,94.0,67.5,29.62,WSW,242,1.1,2.5,42,-99.99,,,-99.99,WSDL version 423,2013-07-17 13:02:00,
2013-07-17 09:07:00,93.7,66.5,29.62,West,265,1.4,2.7,41,-99.99,,,-99.99,WSDL version 423,2013-07-17 13:07:00,
2013-07-17 09:12:00,94.0,66.6,29.59,WSW,248,1.2,2.7,41,-99.99,,,-99.99,WSDL version 423,2013-07-17 13:12:00,
2013-07-17 09:17:00,94.3,66.8,29.59,SW,233,1.0,2.7,40,-99.99,,,-99.99,WSDL version 423,2013-07-17 13:17:00,
2013-07-17 09:22:00,94.9,67.5,29.59,WSW,239,0.0,2.5,42,-99.99,,,-99.99,WSDL version 423,2013-07-17 13:22:00,
2013-07-17 09:27:00,95.7,67.5,29.59,SW,231,0.3,2.5,40,-99.99,,,-99.99,WSDL version 423,2013-07-17 13:27:00,
2013-07-17 09:33:00,95.8,66.7,29.59,WSW,243,1.2,2.5,39,-99.99,,,-99.99,WSDL version 423,2013-07-17 13:33:00,
2013-07-17 09:37:00,96.3,67.7,29.59,WSW,248,0.0,2.5,39,-99.99,,,-99.99,WSDL version 423,2013-07-17 13:37:00,
2013-07-17 09:42:00,96.9,67.4,29.59,SW,215,0.8,2.0,38,-99.99,,,-99.99,WSDL version 423,2013-07-17 13:42:00,
2013-07-17 09:47:00,97.2,66.9,29.59,SW,233,0.0,2.0,38,-99.99,,,-99.99,WSDL version 423,2013-07-17 13:47:00,
2013-07-17 09:52:00,97.7,67.1,29.59,North,11,1.2,2.5,36,-99.99,,,-99.99,WSDL version 423,2013-07-17 13:52:00,
2013-07-17 09:57:00,97.5,66.4,29.59,SW,225,0.2,2.5,37,-99.99,,,-99.99,WSDL version 423,2013-07-17 13:57:00,
2013-07-17 10:02:00,96.7,66.3,29.59,WSW,257,0.0,1.6,37,-99.99,,,-99.99,WSDL version 423,2013-07-17 14:02:00,
2013-07-17 10:07:00,95.5,65.6,29.59,WSW,238,0.0,1.6,38,-99.99,,,-99.99,WSDL version 423,2013-07-17 14:07:00,
2013-07-17 10:12:00,94.4,65.4,29.59,SW,233,0.2,2.2,39,-99.99,,,-99.99,WSDL version 423,2013-07-17 14:12:00,
2013-07-17 10:17:00,95.5,66.6,29.59,WSW,257,0.4,2.2,39,-99.99,,,-99.99,WSDL version 423,2013-07-17 14:17:00,
2013-07-17 10:23:00,96.8,67.1,29.59,WSW,238,1.5,2.5,38,-99.99,,,-99.99,WSDL version 423,2013-07-17 14:23:00,
2013-07-17 10:27:00,96.9,66.5,29.59,WSW,250,2.3,2.9,37,-99.99,,,-99.99,WSDL version 423,2013-07-17 14:27:00,
2013-07-17 10:32:00,97.5,66.9,29.59,WSW,238,0.3,2.9,37,-99.99,,,-99.99,WSDL version 423,2013-07-17 14:32:00,
2013-07-17 10:37:00,98.1,66.8,29.59,SW,228,1.8,3.8,36,-99.99,,,-99.99,WSDL version 423,2013-07-17 14:37:00,
2013-07-17 10:42:00,98.5,66.9,29.59,SW,230,1.5,3.8,36,-99.99,,,-99.99,WSDL version 423,2013-07-17 14:42:00,
2013-07-17 10:47:00,98.8,66.2,29.59,SSW,203,0.9,2.9,35,-99.99,,,-99.99,WSDL version 423,2013-07-17 14:47:00,
2013-07-17 10:52:00,99.2,67.2,29.59,South,170,0.6,2.5,35,-99.99,,,-99.99,WSDL version 423,2013-07-17 14:52:00,
2013-07-17 10:57:00,99.8,66.8,29.59,West,268,1.5,2.9,34,-99.99,,,-99.99,WSDL version 423,2013-07-17 14:57:00,
2013-07-17 11:02:00,99.9,66.1,29.59,SW,236,1.0,2.9,33,-99.99,,,-99.99,WSDL version 423,2013-07-17 15:02:00,
2013-07-17 11:07:00,100.1,66.4,29.59,WSW,256,1.0,2.2,33,-99.99,,,-99.99,WSDL version 423,2013-07-17 15:07:00,
2013-07-17 11:12:00,100.5,65.8,29.59,WSW,245,0.0,2.5,33,-99.99,,,-99.99,WSDL version 423,2013-07-17 15:12:00,
2013-07-17 11:17:00,100.8,65.1,29.59,SE,128,0.0,2.5,31,-99.99,,,-99.99,WSDL version 423,2013-07-17 15:17:00,
2013-07-17 11:22:00,100.8,64.4,29.59,WSW,256,1.0,2.5,31,-99.99,,,-99.99,WSDL version 423,2013-07-17 15:22:00,
2013-07-17 11:27:00,101.5,64.5,29.59,SSW,206,1.1,3.8,29,-99.99,,,-99.99,WSDL version 423,2013-07-17 15:27:00,
2013-07-17 11:33:00,100.0,63.0,29.59,WSW,239,0.3,3.8,31,-99.99,,,-99.99,WSDL version 423,2013-07-17 15:33:00,
2013-07-17 11:37:00,98.8,63.3,29.59,SW,217,0.0,2.0,32,-99.99,,,-99.99,WSDL version 423,2013-07-17 15:37:00,
2013-07-17 11:42:00,97.8,64.2,29.56,SW,225,0.0,1.6,34,-99.99,,,-99.99,WSDL version 423,2013-07-17 15:42:00,
2013-07-17 11:47:00,97.8,65.0,29.56,SW,231,1.3,2.9,34,-99.99,,,-99.99,WSDL version 423,2013-07-17 15:47:00,
2013-07-17 11:52:00,99.1,64.8,29.56,SW,233,1.7,2.9,32,-99.99,,,-99.99,WSDL version 423,2013-07-17 15:52:00,
2013-07-17 11:57:00,99.9,64.3,29.56,SW,235,0.8,2.7,31,-99.99,,,-99.99,WSDL version 423,2013-07-17 15:57:00,
2013-07-17 12:02:00,100.7,64.2,29.56,West,262,0.7,2.9,30,-99.99,,,-99.99,WSDL version 423,2013-07-17 16:02:00,
2013-07-17 12:07:00,101.0,63.2,29.56,SW,220,1.5,2.9,29,-99.99,,,-99.99,WSDL version 423,2013-07-17 16:07:00,
2013-07-17 12:12:00,101.1,63.8,29.56,SW,228,2.3,3.1,29,-99.99,,,-99.99,WSDL version 423,2013-07-17 16:12:00,
2013-07-17 12:17:00,100.8,62.6,29.56,WSW,248,1.4,3.1,29,-99.99,,,-99.99,WSDL version 423,2013-07-17 16:17:00,
2013-07-17 12:22:00,100.5,61.5,29.56,SW,236,2.9,3.8,28,-99.99,,,-99.99,WSDL version 423,2013-07-17 16:22:00,
2013-07-17 12:27:00,100.2,61.7,29.59,SW,230,2.8,5.4,28,-99.99,,,-99.99,WSDL version 423,2013-07-17 16:27:00,
2013-07-17 12:32:00,100.2,61.4,29.59,SW,233,2.5,5.4,29,-99.99,,,-99.99,WSDL version 423,2013-07-17 16:32:00,
2013-07-17 12:37:00,99.5,62.0,29.59,SW,222,1.2,4.3,30,-99.99,,,-99.99,WSDL version 423,2013-07-17 16:37:00,
2013-07-17 12:42:00,100.2,62.8,29.56,SW,233,2.5,3.8,29,-99.99,,,-99.99,WSDL version 423,2013-07-17 16:42:00,
2013-07-17 12:47:00,100.4,63.2,29.56,SW,233,0.6,3.8,30,-99.99,,,-99.99,WSDL version 423,2013-07-17 16:47:00,
2013-07-17 12:52:00,99.2,62.0,29.56,SW,228,1.6,2.9,30,-99.99,,,-99.99,WSDL version 423,2013-07-17 16:52:00,
2013-07-17 12:57:00,98.6,62.0,29.56,WSW,254,1.9,3.1,31,-99.99,,,-99.99,WSDL version 423,2013-07-17 16:57:00,
2013-07-17 13:02:00,99.2,63.2,29.56,West,270,0.9,3.6,31,-99.99,,,-99.99,WSDL version 423,2013-07-17 17:02:00,
2013-07-17 13:07:00,98.7,63.0,29.56,SW,228,2.1,3.6,31,-99.99,,,-99.99,WSDL version 423,2013-07-17 17:07:00,
2013-07-17 13:13:00,98.6,63.7,29.56,West,276,1.1,2.9,32,-99.99,,,-99.99,WSDL version 423,2013-07-17 17:13:00,
2013-07-17 13:17:00,98.0,63.0,29.56,SW,233,2.4,3.6,31,-99.99,,,-99.99,WSDL version 423,2013-07-17 17:17:00,
2013-07-17 13:22:00,97.5,62.8,29.56,SW,228,1.8,3.6,33,-99.99,,,-99.99,WSDL version 423,2013-07-17 17:22:00,
2013-07-17 13:27:00,98.4,63.3,29.56,SW,228,2.2,3.6,31,-99.99,,,-99.99,WSDL version 423,2013-07-17 17:27:00,
2013-07-17 13:32:00,99.4,63.1,29.56,WSW,248,2.1,3.4,30,-99.99,,,-99.99,WSDL version 423,2013-07-17 17:32:00,
2013-07-17 13:37:00,100.0,63.3,29.56,SW,233,0.9,3.4,30,-99.99,,,-99.99,WSDL version 423,2013-07-17 17:37:00,
2013-07-17 13:42:00,100.0,63.0,29.56,WSW,242,2.1,3.1,30,-99.99,,,-99.99,WSDL version 423,2013-07-17 17:42:00,
2013-07-17 13:47:00,99.6,62.3,29.56,WSW,253,2.2,4.3,30,-99.99,,,-99.99,WSDL version 423,2013-07-17 17:47:00,
2013-07-17 13:52:00,99.3,61.8,29.56,WSW,248,1.9,4.7,30,-99.99,,,-99.99,WSDL version 423,2013-07-17 17:52:00,
2013-07-17 13:57:00,98.5,61.7,29.53,SW,233,2.6,4.9,30,-99.99,,,-99.99,WSDL version 423,2013-07-17 17:57:00,
2013-07-17 14:03:00,99.7,64.0,29.53,WSW,250,1.3,4.9,32,-99.99,,,-99.99,WSDL version 423,2013-07-17 18:03:00,
2013-07-17 14:07:00,99.7,63.2,29.53,SW,228,2.5,4.3,30,-99.99,,,-99.99,WSDL version 423,2013-07-17 18:07:00,
2013-07-17 14:12:00,99.3,63.3,29.53,SW,235,1.6,4.3,32,-99.99,,,-99.99,WSDL version 423,2013-07-17 18:12:00,
2013-07-17 14:17:00,98.5,63.6,29.53,SW,225,1.5,3.8,32,-99.99,,,-99.99,WSDL version 423,2013-07-17 18:17:00,
2013-07-17 14:22:00,97.4,63.5,29.53,SW,233,1.4,3.8,34,-99.99,,,-99.99,WSDL version 423,2013-07-17 18:22:00,
2013-07-17 14:27:00,97.4,64.5,29.53,WSW,243,1.4,3.8,34,-99.99,,,-99.99,WSDL version 423,2013-07-17 18:27:00,
2013-07-17 14:33:00,97.0,65.3,29.53,WSW,239,0.8,3.8,36,-99.99,,,-99.99,WSDL version 423,2013-07-17 18:33:00,
2013-07-17 14:37:00,98.6,66.4,29.53,SW,223,2.1,2.9,34,-99.99,,,-99.99,WSDL version 423,2013-07-17 18:37:00,
2013-07-17 14:42:00,98.6,65.5,29.50,SW,233,1.6,3.1,35,-99.99,,,-99.99,WSDL version 423,2013-07-17 18:42:00,
2013-07-17 14:47:00,98.6,63.9,29.50,WSW,239,2.2,6.3,33,-99.99,,,-99.99,WSDL version 423,2013-07-17 18:47:00,
2013-07-17 14:53:00,98.1,64.0,29.50,WSW,238,1.8,6.3,33,-99.99,,,-99.99,WSDL version 423,2013-07-17 18:53:00,
2013-07-17 14:57:00,98.5,64.2,29.50,WSW,243,0.8,4.3,33,-99.99,,,-99.99,WSDL version 423,2013-07-17 18:57:00,
2013-07-17 15:03:00,99.0,64.7,29.50,WSW,245,2.1,3.1,32,-99.99,,,-99.99,WSDL version 423,2013-07-17 19:03:00,
2013-07-17 15:07:00,98.6,62.8,29.50,SW,228,3.1,4.9,31,-99.99,,,-99.99,WSDL version 423,2013-07-17 19:07:00,
2013-07-17 15:12:00,97.4,61.5,29.50,SW,225,1.3,4.9,31,-99.99,,,-99.99,WSDL version 423,2013-07-17 19:12:00,
2013-07-17 15:17:00,96.6,62.2,29.50,WSW,242,1.2,4.3,33,-99.99,,,-99.99,WSDL version 423,2013-07-17 19:17:00,
2013-07-17 15:27:00,95.1,63.1,29.50,WSW,250,1.4,4.0,36,-99.99,,,-99.99,WSDL version 423,2013-07-17 19:27:00,
2013-07-17 15:33:00,94.2,63.7,29.50,WSW,245,1.5,3.1,37,-99.99,,,-99.99,WSDL version 423,2013-07-17 19:33:00,
2013-07-17 15:38:00,93.6,63.6,29.50,WSW,240,0.8,3.1,38,-99.99,,,-99.99,WSDL version 423,2013-07-17 19:38:00,
2013-07-17 15:43:00,92.9,64.1,29.50,SW,236,1.4,2.7,39,-99.99,,,-99.99,WSDL version 423,2013-07-17 19:43:00,
2013-07-17 15:48:00,92.2,64.1,29.50,WSW,241,1.6,2.9,40,-99.99,,,-99.99,WSDL version 423,2013-07-17 19:48:00,
2013-07-17 15:53:00,91.5,63.8,29.50,SSW,213,1.2,2.9,40,-99.99,,,-99.99,WSDL version 423,2013-07-17 19:53:00,
2013-07-17 15:57:00,91.1,64.2,29.53,WSW,248,1.4,3.1,41,-99.99,,,-99.99,WSDL version 423,2013-07-17 19:57:00,
2013-07-17 16:03:00,90.7,64.3,29.53,SW,223,0.8,4.3,42,-99.99,,,-99.99,WSDL version 423,2013-07-17 20:03:00,
2013-07-17 16:08:00,90.5,64.5,29.53,SW,235,1.4,4.3,43,-99.99,,,-99.99,WSDL version 423,2013-07-17 20:08:00,
2013-07-17 16:13:00,90.3,64.9,29.50,SW,228,1.2,2.9,44,-99.99,,,-99.99,WSDL version 423,2013-07-17 20:13:00,
2013-07-17 16:18:00,90.3,65.5,29.50,WSW,258,0.2,2.7,44,-99.99,,,-99.99,WSDL version 423,2013-07-17 20:18:00,
2013-07-17 16:23:00,90.5,66.0,29.50,SW,233,0.0,2.5,45,-99.99,,,-99.99,WSDL version 423,2013-07-17 20:23:00,
2013-07-17 16:28:00,90.7,66.4,29.50,SW,235,0.0,1.6,45,-99.99,,,-99.99,WSDL version 423,2013-07-17 20:28:00,
2013-07-17 16:33:00,90.7,66.6,29.50,WNW,293,0.0,0.0,45,-99.99,,,-99.99,WSDL version 423,2013-07-17 20:33:00,
2013-07-17 16:43:00,88.8,67.7,29.47,SW,218,3.1,4.9,53,-99.99,,,-99.99,WSDL version 423,2013-07-17 20:43:00,
2013-07-17 16:48:00,86.6,69.2,29.47,SSW,210,1.9,4.9,57,-99.99,,,-99.99,WSDL version 423,2013-07-17 20:48:00,
2013-07-17 16:53:00,85.5,70.1,29.47,WSW,245,0.0,3.4,61,-99.99,,,-99.99,WSDL version 423,2013-07-17 20:53:00,
2013-07-17 16:58:00,85.2,70.5,29.47,WSW,248,0.0,1.6,62,-99.99,,,-99.99,WSDL version 423,2013-07-17 20:58:00,
2013-07-17 17:03:00,85.1,71.3,29.47,West,270,0.0,1.6,64,-99.99,,,-99.99,WSDL version 423,2013-07-17 21:03:00,
2013-07-17 17:08:00,85.4,72.2,29.47,West,270,0.0,0.9,65,-99.99,,,-99.99,WSDL version 423,2013-07-17 21:08:00,
2013-07-17 17:13:00,85.7,72.9,29.47,West,270,0.0,0.0,65,-99.99,,,-99.99,WSDL version 423,2013-07-17 21:13:00,
2013-07-17 17:18:00,86.2,72.7,29.47,West,270,0.0,0.0,64,-99.99,,,-99.99,WSDL version 423,2013-07-17 21:18:00,
2013-07-17 17:23:00,86.5,73.7,29.47,SW,225,0.0,0.0,66,-99.99,,,-99.99,WSDL version 423,2013-07-17 21:23:00,
2013-07-17 17:28:00,86.6,73.9,29.50,SW,225,0.0,0.0,66,-99.99,,,-99.99,WSDL version 423,2013-07-17 21:28:00,
2013-07-17 17:33:00,86.9,73.8,29.50,SW,223,0.0,1.1,66,-99.99,,,-99.99,WSDL version 423,2013-07-17 21:33:00,
2013-07-17 17:38:00,86.9,74.1,29.50,SW,230,0.0,1.1,65,-99.99,,,-99.99,WSDL version 423,2013-07-17 21:38:00,
2013-07-17 17:43:00,86.9,74.0,29.50,SW,219,1.0,2.2,66,-99.99,,,-99.99,WSDL version 423,2013-07-17 21:43:00,
2013-07-17 17:48:00,86.9,74.2,29.50,WSW,239,0.0,2.2,67,-99.99,,,-99.99,WSDL version 423,2013-07-17 21:48:00,
2013-07-17 17:53:00,86.7,74.0,29.50,South,180,0.0,2.2,66,-99.99,,,-99.99,WSDL version 423,2013-07-17 21:53:00,
2013-07-17 17:58:00,86.5,73.8,29.50,WSW,245,0.4,2.2,66,-99.99,,,-99.99,WSDL version 423,2013-07-17 21:58:00,
2013-07-17 18:03:00,86.5,73.5,29.50,SW,218,0.0,2.2,66,-99.99,,,-99.99,WSDL version 423,2013-07-17 22:03:00,
2013-07-17 18:08:00,86.3,73.1,29.50,WNW,283,0.0,2.2,65,-99.99,,,-99.99,WSDL version 423,2013-07-17 22:08:00,
2013-07-17 18:13:00,86.0,73.0,29.47,West,262,1.3,2.9,66,-99.99,,,-99.99,WSDL version 423,2013-07-17 22:13:00,
2013-07-17 18:18:00,85.5,72.7,29.47,WSW,239,0.4,2.9,66,-99.99,,,-99.99,WSDL version 423,2013-07-17 22:18:00,
2013-07-17 18:23:00,85.1,72.5,29.47,SW,236,0.9,2.5,67,-99.99,,,-99.99,WSDL version 423,2013-07-17 22:23:00,
2013-07-17 18:28:00,84.1,72.4,29.47,SW,235,0.7,2.5,69,-99.99,,,-99.99,WSDL version 423,2013-07-17 22:28:00,
2013-07-17 18:33:00,83.3,72.5,29.47,WSW,253,0.2,2.9,71,-99.99,,,-99.99,WSDL version 423,2013-07-17 22:33:00,
2013-07-17 18:38:00,82.7,72.7,29.47,WSW,248,3.1,5.4,73,-99.99,,,-99.99,WSDL version 423,2013-07-17 22:38:00,
2013-07-17 18:43:00,80.9,69.0,29.53,SW,217,4.1,6.3,65,-99.99,,,-99.99,WSDL version 423,2013-07-17 22:43:00,
2013-07-17 18:48:00,78.3,66.1,29.53,SW,233,2.5,6.3,67,-99.99,,,-99.99,WSDL version 423,2013-07-17 22:48:00,
2013-07-17 18:53:00,76.5,65.6,29.53,SW,236,1.5,4.0,70,-99.99,,,-99.99,WSDL version 423,2013-07-17 22:53:00,
2013-07-17 18:58:00,75.5,65.3,29.50,WSW,240,0.9,2.9,72,-99.99,,,-99.99,WSDL version 423,2013-07-17 22:58:00,
2013-07-17 19:03:00,75.0,66.0,29.50,WSW,238,0.8,2.7,75,-99.99,,,-99.99,WSDL version 423,2013-07-17 23:03:00,
2013-07-17 19:08:00,74.8,66.2,29.50,West,280,0.0,2.7,75,-99.99,,,-99.99,WSDL version 423,2013-07-17 23:08:00,
2013-07-17 19:13:00,74.6,66.7,29.50,SW,230,1.3,2.9,76,-99.99,,,-99.99,WSDL version 423,2013-07-17 23:13:00,
2013-07-17 19:18:00,74.3,66.6,29.50,WSW,256,1.8,3.1,78,-99.99,,,-99.99,WSDL version 423,2013-07-17 23:18:00,
2013-07-17 19:23:00,74.0,66.5,29.50,NW,323,0.0,3.1,77,-99.99,,,-99.99,WSDL version 423,2013-07-17 23:23:00,
2013-07-17 19:28:00,73.6,66.7,29.53,SW,215,0.9,2.7,79,-99.99,,,-99.99,WSDL version 423,2013-07-17 23:28:00,
2013-07-17 19:33:00,73.2,66.5,29.53,SSW,208,0.0,2.7,80,-99.99,,,-99.99,WSDL version 423,2013-07-17 23:33:00,
2013-07-17 19:38:00,72.9,66.7,29.53,SW,225,0.0,1.6,83,-99.99,,,-99.99,WSDL version 423,2013-07-17 23:38:00,
2013-07-17 19:43:00,72.7,67.4,29.53,North,8,0.0,0.0,81,-99.99,,,-99.99,WSDL version 423,2013-07-17 23:43:00,
2013-07-17 19:48:00,72.2,66.6,29.53,WNW,300,0.0,1.3,84,-99.99,,,-99.99,WSDL version 423,2013-07-17 23:48:00,
2013-07-17 19:53:00,72.0,67.2,29.53,SE,135,0.0,2.0,86,-99.99,,,-99.99,WSDL version 423,2013-07-17 23:53:00,
2013-07-17 19:58:00,72.0,67.8,29.50,SSE,158,0.0,2.0,88,-99.99,,,-99.99,WSDL version 423,2013-07-17 23:58:00,
2013-07-17 20:03:00,72.0,68.1,29.50,SW,225,0.0,0.0,88,-99.99,,,-99.99,WSDL version 423,2013-07-18 00:03:00,
2013-07-17 20:08:00,72.0,68.0,29.50,North,353,0.0,0.0,87,-99.99,,,-99.99,WSDL version 423,2013-07-18 00:08:00,
2013-07-17 20:13:00,71.8,68.1,29.50,NNW,338,0.0,0.0,89,-99.99,,,-99.99,WSDL version 423,2013-07-18 00:13:00,
2013-07-17 20:18:00,72.0,68.5,29.50,NW,323,0.0,0.0,89,-99.99,,,-99.99,WSDL version 423,2013-07-18 00:18:00,
2013-07-17 20:23:00,71.8,68.6,29.50,NW,315,0.0,0.0,90,-99.99,,,-99.99,WSDL version 423,2013-07-18 00:23:00,
2013-07-17 20:28:00,71.8,68.9,29.50,NNE,20,0.0,0.0,90,-99.99,,,-99.99,WSDL version 423,2013-07-18 00:28:00,
2013-07-17 20:33:00,71.7,68.6,29.50,NE,45,0.0,0.0,90,-99.99,,,-99.99,WSDL version 423,2013-07-18 00:33:00,
2013-07-17 20:38:00,71.5,68.4,29.50,NE,51,0.0,0.0,90,-99.99,,,-99.99,WSDL version 423,2013-07-18 00:38:00,
2013-07-17 20:43:00,71.2,68.1,29.50,SE,128,0.0,0.0,90,-99.99,,,-99.99,WSDL version 423,2013-07-18 00:43:00,
2013-07-17 20:48:00,71.1,68.2,29.50,NW,318,0.0,0.0,91,-99.99,,,-99.99,WSDL version 423,2013-07-18 00:48:00,
2013-07-17 20:53:00,71.1,68.6,29.50,NW,315,0.0,0.0,92,-99.99,,,-99.99,WSDL version 423,2013-07-18 00:53:00,
2013-07-17 20:58:00,71.1,68.6,29.50,NW,315,0.0,0.0,93,-99.99,,,-99.99,WSDL version 423,2013-07-18 00:58:00,
2013-07-17 21:03:00,70.9,68.6,29.50,NW,315,0.0,0.0,92,-99.99,,,-99.99,WSDL version 423,2013-07-18 01:03:00,
2013-07-17 21:08:00,70.8,68.4,29.50,North,358,0.0,0.0,92,-99.99,,,-99.99,WSDL version 423,2013-07-18 01:08:00,
2013-07-17 21:13:00,70.7,68.3,29.53,NW,315,0.0,0.0,92,-99.99,,,-99.99,WSDL version 423,2013-07-18 01:13:00,
2013-07-17 21:18:00,70.6,68.7,29.53,East,90,0.0,0.0,94,-99.99,,,-99.99,WSDL version 423,2013-07-18 01:18:00,
2013-07-17 21:23:00,70.6,68.9,29.53,SSE,158,0.0,0.0,94,-99.99,,,-99.99,WSDL version 423,2013-07-18 01:23:00,
2013-07-17 21:28:00,70.5,68.7,29.50,NNW,338,0.0,0.0,93,-99.99,,,-99.99,WSDL version 423,2013-07-18 01:28:00,
2013-07-17 21:33:00,70.4,68.6,29.50,North,5,0.0,0.0,94,-99.99,,,-99.99,WSDL version 423,2013-07-18 01:33:00,
2013-07-17 21:38:00,70.3,68.9,29.50,NNW,335,0.0,0.0,96,-99.99,,,-99.99,WSDL version 423,2013-07-18 01:38:00,
2013-07-17 21:43:00,70.3,69.3,29.53,NW,315,0.0,0.0,97,-99.99,,,-99.99,WSDL version 423,2013-07-18 01:43:00,
2013-07-17 21:48:00,70.3,69.4,29.53,North,3,1.4,2.7,98,-99.99,,,-99.99,WSDL version 423,2013-07-18 01:48:00,
2013-07-17 21:53:00,70.3,69.7,29.53,NNE,23,0.0,2.7,98,-99.99,,,-99.99,WSDL version 423,2013-07-18 01:53:00,
2013-07-17 21:58:00,70.3,69.7,29.53,West,270,0.0,1.3,98,-99.99,,,-99.99,WSDL version 423,2013-07-18 01:58:00,
2013-07-17 22:03:00,70.3,69.7,29.53,West,270,0.0,0.0,98,-99.99,,,-99.99,WSDL version 423,2013-07-18 02:03:00,
2013-07-17 22:08:00,70.2,69.5,29.53,West,270,0.0,0.0,98,-99.99,,,-99.99,WSDL version 423,2013-07-18 02:08:00,
2013-07-17 22:13:00,69.9,69.0,29.53,West,270,0.0,0.0,97,-99.99,,,-99.99,WSDL version 423,2013-07-18 02:13:00,
2013-07-17 22:23:00,69.8,69.1,29.53,West,270,0.0,0.0,98,-99.99,,,-99.99,WSDL version 423,2013-07-18 02:23:00,
2013-07-17 22:28:00,69.6,69.0,29.53,West,270,0.0,0.0,98,-99.99,,,-99.99,WSDL version 423,2013-07-18 02:28:00,
2013-07-17 22:33:00,69.4,68.7,29.53,West,270,0.0,0.0,98,-99.99,,,-99.99,WSDL version 423,2013-07-18 02:33:00,
2013-07-17 22:38:00,69.3,68.4,29.53,West,270,0.0,0.0,98,-99.99,,,-99.99,WSDL version 423,2013-07-18 02:38:00,
2013-07-17 22:43:00,69.1,68.4,29.53,West,270,0.0,0.0,98,-99.99,,,-99.99,WSDL version 423,2013-07-18 02:43:00,
2013-07-17 22:48:00,69.0,68.3,29.53,West,270,0.0,0.0,98,-99.99,,,-99.99,WSDL version 423,2013-07-18 02:48:00,
2013-07-17 22:53:00,68.9,68.2,29.53,SSE,158,0.0,1.1,98,-99.99,,,-99.99,WSDL version 423,2013-07-18 02:53:00,
2013-07-17 22:58:00,68.9,68.2,29.53,ESE,113,0.0,1.1,98,-99.99,,,-99.99,WSDL version 423,2013-07-18 02:58:00,
2013-07-17 23:03:00,68.7,68.1,29.53,West,270,0.0,0.0,99,-99.99,,,-99.99,WSDL version 423,2013-07-18 03:03:00,
2013-07-17 23:08:00,68.7,68.4,29.53,West,270,0.0,0.0,99,-99.99,,,-99.99,WSDL version 423,2013-07-18 03:08:00,
2013-07-17 23:18:00,68.5,68.1,29.53,ESE,113,0.0,0.0,99,-99.99,,,-99.99,WSDL version 423,2013-07-18 03:18:00,
2013-07-17 23:23:00,68.3,67.9,29.53,North,349,0.0,0.0,99,-99.99,,,-99.99,WSDL version 423,2013-07-18 03:23:00,
2013-07-17 23:28:00,68.2,67.9,29.53,SE,135,0.0,1.1,99,-99.99,,,-99.99,WSDL version 423,2013-07-18 03:28:00,
2013-07-17 23:33:00,68.2,68.0,29.53,SE,135,0.0,1.1,100,-99.99,,,-99.99,WSDL version 423,2013-07-18 03:33:00,
2013-07-17 23:38:00,68.1,67.8,29.53,North,3,0.0,0.0,99,-99.99,,,-99.99,WSDL version 423,2013-07-18 03:38:00,
2013-07-17 23:43:00,68.1,67.7,29.53,East,80,0.0,0.9,99,-99.99,,,-99.99,WSDL version 423,2013-07-18 03:43:00,
2013-07-17 23:48:00,68.0,68.0,29.53,SSW,203,0.0,0.9,100,-99.99,,,-99.99,WSDL version 423,2013-07-18 03:48:00,
2013-07-17 23:53:00,68.0,68.0,29.53,SW,225,0.0,0.0,100,-99.99,,,-99.99,WSDL version 423,2013-07-18 03:53:00,
2013-07-17 23:58:00,68.0,68.0,29.53,SW,225,0.0,0.0,100,-99.99,,,-99.99,WSDL version 423,2013-07-18 03:58:00,